Regional Weather Roundup
Issued by NWS Charleston, SC

Current Version | Previous Version | Text Only | Print | Product List | Glossary On
Versions: 1 2 3 4 5 6 7 8 9 10 11 12 13 14 15 16 17 18 19 20 21 22 23 24 25 26 27 28 29 30 31 32 33 34 35 36 37 38 39 40 41 42 43 44 45 46 47 48 49 50
000 ASUS42 KCHS 250727 RWRCHS Regional Weather Roundup National Weather Service Charleston SC 300 AM EDT FRI MAY 25 2018 NOTE: "fair" indicates few or no clouds below 12,000 feet with no significant weather and/or obstructions to visibility. Not all stations are quality controlled. Use data with caution, especially dewpoint observations. SCZ027-030-031-034>040-042>050-250800- ...Southeast South Carolina... CITY SKY/WX TMP DP RH WIND PRES REMARKS N Charleston MOCLDY 73 71 93 NE3 30.09S Waterfront Prk N/A 77 74 91 E7 29.93F Mount Pleasant FAIR 70 70 100 CALM 30.09F FOG Johns Island FAIR 73 73 100 CALM 30.08F Pinopolis N/A 73 72 94 CALM 30.02F Moncks Corner PTSUNNY 70 68 94 CALM 30.09F FOG Summerville PTSUNNY 70 70 100 CALM 30.10F Beaufort MCAS FAIR 74 73 97 CALM 30.08S Beaufort Arpt FAIR 72 72 100 E5 30.07S Hilton Head Is FAIR 75 72 88 S3 30.08F Walterboro FAIR 70 70 100 NE3 30.10S Allendale FOG 72 72 100 CALM 30.08S VSB 1 ...Southern Midlands and Pee Dee... CITY SKY/WX TMP DP RH WIND PRES REMARKS Georgetown FAIR 66 66 100 CALM 30.11S Kingstree FAIR 70 70 100 CALM 30.10F Orangeburg CLOUDY 72 70 93 NE3 30.09F FOG Barnwell CLOUDY 72 70 94 CALM 30.09F Aiken CLOUDY 70 70 100 E6 30.13F Manning FAIR 68 68 100 NE3 30.10S FOG Columbia CLOUDY 73 73 100 S3 30.09F Sumter CLOUDY 72 71 97 CALM 30.08F Florence CLOUDY 72 71 97 E3 30.12S Myrtle Beach FAIR 73 71 93 E3 30.12S N Myrtle Beach FAIR 72 70 93 CALM 30.11R $$ GAZ063-065-086>088-099>101-113>116-118-119-134>141-150-250800- ...Southeast Georgia... CITY SKY/WX TMP DP RH WIND PRES REMARKS Savannah Arpt FAIR 75 74 96 E5 30.07F Hunter AAF FAIR 74 72 93 CALM 30.04F Fort Stewart CLOUDY 71 71 98 CALM 30.04F Statesboro CLOUDY 71 71 99 CALM 30.07S FOG Sylvania CLOUDY 72 72 100 CALM 30.08F FOG Claxton CLOUDY 73 73 98 CALM 30.05F FOG ...CSRA, Central and far Southeast Georgia... CITY SKY/WX TMP DP RH WIND PRES REMARKS Thomson CLOUDY 70 69 98 S5 30.13F Augusta-Bush CLOUDY 71 70 96 SE5 30.08F Augusta-Daniel CLOUDY 72 70 93 E6 30.09F Swainsboro RAIN 70 70 100 E3 30.07F Vidalia CLOUDY 72 68 88 E3 30.05F Eastman CLOUDY 72 65 77 CALM 30.06F Hazlehurst N/A 72 68 88 CALM 30.03S Alma FAIR 72 69 90 SE3 30.03F Waycross FAIR 71 68 90 CALM 30.03F Jesup PTSUNNY 72 68 89 CALM 30.04F FOG Baxley FAIR 70 70 100 CALM 30.03F Brunswick FAIR 72 68 88 CALM 30.05F Saint Simons FAIR 77 73 87 S6 30.04F $$ SCZ027-028-034-036>038-045-046-048>050-GAZ119-141-250800- ...Lake and Supplemental Coastal Observations... STATION/POSITION TIME TEMP WIND PRES WAVE SWELL AIR SEA DIR/SP/G HT/PER HT/PER/DIR (UTC) (F) (DEG/KT/KT) (MB) (FT/S) (FT/S/D) Winyah Bay 0645 73 40/ 1 1019.0S Lake Murray 0620 74 170/ 6/ 8 1018.6 ACE Basin NERRS 0645 72 CALM 1019.0S Fort Pulaski 0648 76 79 130/ 3/ 4 1018.6F Sapelo Island 0700 76 160/ 5 1017.0 $$ ANZ835-935-AMZ111-154-330-350-352-354-370-450-454-472-250800- ...C-MAN and Buoy Observations... STATION/POSITION TIME TEMP WIND PRES WAVE SWELL AIR SEA DIR/SP/G HT/PER HT/PER/DIR (UTC) (F) (DEG/KT/KT) (MB) (FT/S) (FT/S/D) Buoy 41004 0710 76 100/ 4/ 6 1018.5 Buoy 41008 0650 76 77 160/ 4/ 4 1017.7F 2/ 8 2/150/ 8 Folly Beach CMAN 0700 77 110/ 7/ 7 1019.4S Capers Nearshore 0708 77 77 100/ 8/ 10 1019.6F Fripp Nearshore 0708 77 78 160/ 8/ 10 1018.0F STATION/POSITION TIME TEMP WIND PRES WAVE SWELL AIR SEA DIR/SP/G HT/PER HT/PER/DIR (UTC) (F) (DEG/KT/KT) (MB) (FT/S) (FT/S/D) 5E St. Marys GA 0630 77 N/A 2/ 8 Frying Pan Buoy 0710 75 77 70/ 8/ 10 1019.1 Buoy 41025 0710 77 78 130/ 8/ 10 1020.4 Cape Lookout NC 0700 90/ 5/ 6 1020.1F Buoy 41002 0710 78 130/ 4/ 6 1018.7 Buoy 41010 0710 78 79 130/ 10/ 14 1018.1 St Augustine FL 0700 76 80 200/ 4/ 5 1017.5F $$

USA.gov is the U.S. government's official web portal to all federal, state and local government web resources and services.